Location: Igloolik
(69.3800°N, 81.8000°W)
Time: 02:17:27
(UTC-06:00)

Amateur Radio Satellites - All Passes

Search period start: 29 January 2015 01:47
Search period end: 30 January 2015 01:47
Location: Igloolik, 69.3800°N, 81.8000°W

Satellite Date Start Highest point End Downlink Frequencies (MHz)
Time Altitude Azimuth
QB50P1 29 Jan 01:53:30 01:57:05 25° 327° (NNW) 02:00:39 145.935-145.965
STRAND 1 29 Jan 01:54:07 01:58:29 29° 27° (NNE) 02:02:55 437.568
CUBESAT XI-V 29 Jan 01:57:10 02:01:00 26° 32° (NNE) 02:04:54 437.345
YUBILEINY 29 Jan 01:59:21 02:07:24 38° 18° (NNE) 02:15:31 435.215
GONETS M04 29 Jan 02:05:12 02:14:00 85° 295° (WNW) 02:22:47
BUGSAT 1 29 Jan 02:07:20 02:10:48 24° 327° (NNW) 02:14:16 437.445
UNISAT 6 29 Jan 02:07:20 02:10:57 23° 336° (NNW) 02:14:28 437.425
POLYITAN 1 29 Jan 02:08:02 02:11:30 23° 331° (NNW) 02:14:57 437.675
PRISM 29 Jan 02:09:32 02:13:08 29° 39° (NE) 02:16:45 437.425
M-CUBED/EXP-1 PRIME 29 Jan 02:12:51 02:15:39 20° 260° (W) 02:18:17 437.505
POPSAT HIP 1 29 Jan 02:28:18 02:31:34 21° 335° (NNW) 02:34:50 437.405
DUCHIFAT 1 29 Jan 02:31:11 02:34:26 21° 336° (NNW) 02:37:39 145.980
BEESAT 2 29 Jan 02:32:35 02:34:51 15° 128° (SE) 02:37:12 435.950
DANDE 29 Jan 02:37:30 02:45:06 36° 83° (E) 02:52:21 436.750
JAS-2 29 Jan 02:39:45 02:43:26 19° 77° (ENE) 02:47:24 435.910
Gurwin Techsat 1B 29 Jan 02:42:07 02:47:27 65° 107° (ESE) 02:52:46 435.225
ANTELSAT 29 Jan 02:43:12 02:46:33 20° 344° (NNW) 02:49:50 437.575/2403.000
BEESAT 3 29 Jan 02:46:23 02:49:06 17° 133° (SE) 02:51:54 437.485
AUBIESAT-1 29 Jan 02:47:42 02:49:34 13° 267° (W) 02:51:19 437.475
TIGRISAT 29 Jan 02:51:08 02:54:26 20° 346° (NNW) 02:57:40 435.000
NANOSAT C BR1 29 Jan 03:05:37 03:08:35 18° 344° (NNW) 03:11:32 145.865
CUSAT 1 29 Jan 03:07:48 03:15:45 47° 92° (E) 03:23:05 437.405
HORYU 2 29 Jan 03:09:13 03:13:35 48° 102° (ESE) 03:17:56 437.375
Oscar 19 29 Jan 03:11:43 03:16:47 54° 310° (NW) 03:21:49 437.125/150
AO-7 29 Jan 03:16:04 03:23:53 41° 94° (E) 03:31:40 29.400- 29.500
STARS 29 Jan 03:16:47 03:19:28 15° 283° (WNW) 03:22:04 437.465
MOZHAYETS 4 29 Jan 03:19:11 03:23:42 55° 257° (WSW) 03:28:14
QB50P2 29 Jan 03:19:41 03:22:34 18° 348° (NNW) 03:25:26 145.880/145.840
KKS-1 29 Jan 03:23:48 03:25:34 12° 289° (WNW) 03:27:13 437.445
ITAMSAT 1 29 Jan 03:26:51 03:32:06 74° 302° (WNW) 03:37:21 435.822/435.867
QB50P1 29 Jan 03:29:05 03:31:55 17° 350° (N) 03:34:44 145.935-145.965
RS-15 29 Jan 03:29:30 03:37:09 23° 103° (ESE) 03:45:10 29.354- 29.394
STRAND 1 29 Jan 03:32:02 03:37:02 55° 51° (NE) 03:42:05 437.568
CUBESAT XI-V 29 Jan 03:33:19 03:37:51 55° 55° (NE) 03:42:26 437.345
BUGSAT 1 29 Jan 03:42:32 03:45:14 17° 351° (N) 03:47:56 437.445
UNISAT 6 29 Jan 03:43:25 03:46:33 18° 359° (N) 03:49:39 437.425
POLYITAN 1 29 Jan 03:43:32 03:46:20 17° 354° (N) 03:49:08 437.675
PRISM 29 Jan 03:44:10 03:48:17 75° 61° (ENE) 03:52:26 437.425
Cubesat XI-IV 29 Jan 03:48:08 03:50:50 14° 69° (ENE) 03:53:39 437.490
YUBILEINY 29 Jan 03:57:31 04:06:10 58° 48° (NE) 04:14:52 435.215
AIST 2 29 Jan 04:03:11 04:06:39 24° 140° (SE) 04:10:09 435.215
GONETS M04 29 Jan 04:03:32 04:11:58 48° 322° (NW) 04:20:23
POPSAT HIP 1 29 Jan 04:03:34 04:06:19 17° 359° (N) 04:09:03 437.405
DUCHIFAT 1 29 Jan 04:06:23 04:09:06 17° 359° (N) 04:11:49 145.980
CUTE-I 29 Jan 04:07:57 04:11:21 17° 74° (ENE) 04:14:52 437.470
BEESAT 2 29 Jan 04:08:23 04:12:05 31° 150° (SSE) 04:15:49 435.950
PCSat 29 Jan 04:15:38 04:19:40 22° 122° (ESE) 04:23:46 145.827
ANTELSAT 29 Jan 04:18:54 04:22:06 19° 8° (N) 04:25:16 437.575/2403.000
DANDE 29 Jan 04:19:10 04:27:49 72° 106° (ESE) 04:35:53 436.750
Gurwin Techsat 1B 29 Jan 04:22:16 04:27:28 54° 311° (NW) 04:32:39 435.225
BEESAT 3 29 Jan 04:22:36 04:26:23 34° 155° (SSE) 04:30:12 437.485
JAS-2 29 Jan 04:24:44 04:29:55 50° 101° (ESE) 04:35:33 435.910
TIGRISAT 29 Jan 04:26:43 04:29:57 19° 10° (N) 04:33:08 435.000
NANOSAT C BR1 29 Jan 04:40:28 04:43:15 17° 8° (N) 04:46:02 145.865
HORYU 2 29 Jan 04:46:00 04:50:26 58° 305° (NW) 04:54:49 437.375
CUSAT 1 29 Jan 04:49:55 04:58:30 90° 12° (NNE) 05:06:13 437.405
Oscar 19 29 Jan 04:51:01 04:55:28 29° 333° (NNW) 04:59:51 437.125/150
QB50P2 29 Jan 04:54:24 04:57:15 17° 12° (NNE) 05:00:08 145.880/145.840
MOZHAYETS 4 29 Jan 04:58:38 05:01:57 19° 280° (W) 05:05:11
QB50P1 29 Jan 05:03:41 05:06:35 18° 14° (NNE) 05:09:30 145.935-145.965
ITAMSAT 1 29 Jan 05:06:27 05:11:11 35° 325° (NW) 05:15:54 435.822/435.867
AO-7 29 Jan 05:09:25 05:17:52 81° 120° (ESE) 05:26:16 29.400- 29.500
CUBESAT XI-V 29 Jan 05:10:53 05:15:25 53° 257° (WSW) 05:20:01 437.345
STRAND 1 29 Jan 05:11:15 05:16:19 61° 254° (WSW) 05:21:27 437.568
BUGSAT 1 29 Jan 05:16:43 05:19:31 17° 14° (NNE) 05:22:20 437.445
POLYITAN 1 29 Jan 05:18:02 05:21:04 19° 17° (NNE) 05:24:07 437.675
UNISAT 6 29 Jan 05:18:35 05:22:08 22° 23° (NNE) 05:25:41 437.425
PRISM 29 Jan 05:20:25 05:24:12 33° 264° (W) 05:27:59 437.425
Cubesat XI-IV 29 Jan 05:27:37 05:32:36 37° 94° (E) 05:37:36 437.490
HO-68 29 Jan 05:27:48 05:30:04 12° 55° (NE) 05:32:36 435.675
RS-15 29 Jan 05:36:41 05:46:44 46° 132° (SE) 05:57:06 29.354- 29.394
POPSAT HIP 1 29 Jan 05:37:52 05:41:01 20° 22° (NNE) 05:44:13 437.405
AIST 2 29 Jan 05:40:29 05:44:34 41° 163° (SSE) 05:48:40 435.215
DUCHIFAT 1 29 Jan 05:40:38 05:43:47 20° 23° (NNE) 05:46:58 145.980
BEESAT 2 29 Jan 05:45:44 05:49:46 45° 173° (S) 05:53:48 435.950
CUTE-I 29 Jan 05:47:43 05:52:52 44° 99° (E) 05:58:03 437.470
ANTELSAT 29 Jan 05:53:56 05:57:48 26° 32° (NNE) 06:01:39 437.575/2403.000
YUBILEINY 29 Jan 05:54:51 06:03:37 77° 256° (WSW) 06:12:23 435.215
PCSat 29 Jan 05:56:58 06:02:07 45° 145° (SE) 06:07:18 145.827
BEESAT 3 29 Jan 06:00:00 06:04:01 46° 178° (S) 06:08:03 437.485
TIGRISAT 29 Jan 06:01:41 06:05:37 27° 33° (NNE) 06:09:31 435.000
Gurwin Techsat 1B 29 Jan 06:02:11 06:06:45 29° 334° (NNW) 06:11:17 435.225
DANDE 29 Jan 06:02:58 06:11:40 65° 310° (NW) 06:19:36 436.750
GONETS M04 29 Jan 06:03:09 06:11:04 36° 353° (N) 06:18:59
JAS-2 29 Jan 06:10:09 06:15:23 66° 305° (NW) 06:21:03 435.910
GOMX 1 29 Jan 06:13:48 06:16:41 14° 66° (ENE) 06:19:40 467.674
NANOSAT C BR1 29 Jan 06:14:34 06:18:02 24° 31° (NNE) 06:21:31 145.865
BRITE-PL 29 Jan 06:17:02 06:20:52 18° 71° (ENE) 06:24:47 437.365/2234.400
HORYU 2 29 Jan 06:22:46 06:26:33 27° 328° (NNW) 06:30:18 437.375
CANX-2 29 Jan 06:23:12 06:24:11 11° 70° (ENE) 06:25:18 2200.000
DOVE 4 29 Jan 06:27:09 06:29:38 13° 65° (ENE) 06:32:15 437.250
QB50P2 29 Jan 06:28:31 06:32:08 26° 35° (NE) 06:35:47 145.880/145.840
Oscar 19 29 Jan 06:29:41 06:33:41 23° 357° (N) 06:37:40 437.125/150
CUSAT 1 29 Jan 06:34:00 06:42:17 53° 319° (NW) 06:49:36 437.405
QB50P1 29 Jan 06:37:47 06:41:28 28° 37° (NE) 06:45:12 145.935-145.965
ITAMSAT 1 29 Jan 06:45:32 06:49:42 24° 349° (N) 06:53:50 435.822/435.867
CUTE 1.7 + AOD 2 29 Jan 06:46:37 06:48:47 14° 75° (ENE) 06:51:03 437.475
BUGSAT 1 29 Jan 06:50:26 06:54:01 28° 37° (NE) 06:57:40 437.445
CUBESAT XI-V 29 Jan 06:50:42 06:53:57 18° 281° (WNW) 06:57:09 437.345
POLYITAN 1 29 Jan 06:52:13 06:56:04 31° 40° (NE) 06:59:57 437.675
STRAND 1 29 Jan 06:52:33 06:56:35 22° 277° (W) 07:00:33 437.568
UNISAT 6 29 Jan 06:53:45 06:58:07 40° 46° (NE) 07:02:27 437.425
PRISM 29 Jan 06:59:57 07:01:02 11° 287° (WNW) 07:02:00 437.425
AO-7 29 Jan 07:02:24 07:10:38 62° 326° (NNW) 07:18:47 29.400- 29.500
Cubesat XI-IV 29 Jan 07:07:52 07:13:17 87° 301° (WNW) 07:18:43 437.490
POPSAT HIP 1 29 Jan 07:12:07 07:16:06 36° 45° (NE) 07:20:06 437.405
HO-68 29 Jan 07:14:39 07:20:41 28° 83° (E) 07:26:47 435.675
DUCHIFAT 1 29 Jan 07:14:51 07:18:49 37° 46° (NE) 07:22:50 145.980
SEEDS 29 Jan 07:17:09 07:20:05 18° 81° (E) 07:23:03 437.485
AIST 2 29 Jan 07:18:36 07:22:45 46° 186° (S) 07:26:55 435.215
BEESAT 2 29 Jan 07:23:35 07:27:33 41° 196° (SSW) 07:31:32 435.950
CUTE-I 29 Jan 07:27:58 07:33:21 74° 303° (WNW) 07:38:45 437.470
CUBEBUG 2 29 Jan 07:29:01 07:31:05 13° 69° (ENE) 07:33:14 437.445
ANTELSAT 29 Jan 07:29:24 07:34:00 55° 54° (NE) 07:38:33 437.575/2403.000
TIGRISAT 29 Jan 07:37:11 07:41:49 58° 56° (NE) 07:46:23 435.000
ZACube-1 29 Jan 07:37:40 07:38:59 11° 68° (ENE) 07:40:26 437.345
BEESAT 3 29 Jan 07:37:49 07:41:43 38° 200° (SSW) 07:45:36 437.485
PCSat 29 Jan 07:39:45 07:45:10 68° 169° (S) 07:50:36 145.827
Gurwin Techsat 1B 29 Jan 07:41:26 07:45:35 24° 359° (N) 07:49:43 435.225
COMPASS 1 29 Jan 07:43:47 07:47:06 22° 86° (E) 07:50:27 437.405
DX 1 29 Jan 07:43:50 07:45:23 12° 72° (ENE) 07:47:03 434.975-435.025
RS-15 29 Jan 07:47:01 07:57:47 67° 162° (SSE) 08:08:56 29.354- 29.394
DANDE 29 Jan 07:48:19 07:56:29 42° 335° (NNW) 08:03:46 436.750
NANOSAT C BR1 29 Jan 07:49:06 07:53:17 52° 54° (NE) 07:57:31 145.865
FUNcube-1 29 Jan 07:49:15 07:51:14 13° 71° (ENE) 07:53:19 145.935
GOMX 1 29 Jan 07:51:22 07:56:28 36° 90° (E) 08:01:30 467.674
YUBILEINY 29 Jan 07:51:44 07:59:31 37° 284° (WNW) 08:07:15 435.215
CINEMA 3 29 Jan 07:52:07 07:56:02 23° 81° (E) 07:59:54 145.822/145.860
BRITE-PL 29 Jan 07:55:21 08:00:50 45° 95° (E) 08:06:18 437.365/2234.400
JAS-2 29 Jan 07:55:22 08:00:02 33° 329° (NNW) 08:04:55 435.910
CANX-2 29 Jan 07:57:39 08:01:31 33° 93° (E) 08:05:23 2200.000
HORYU 2 29 Jan 07:59:04 08:02:11 19° 351° (N) 08:05:17 437.375
GONETS M04 29 Jan 08:02:19 08:10:27 40° 24° (NNE) 08:18:34
QB50P2 29 Jan 08:03:16 08:07:32 61° 57° (ENE) 08:11:51 145.880/145.840
DOVE 4 29 Jan 08:04:12 08:09:04 35° 90° (E) 08:13:52 437.250
DELFI C3 29 Jan 08:06:10 08:08:53 17° 81° (E) 08:11:39 145.870
Oscar 19 29 Jan 08:07:34 08:11:51 27° 22° (NNE) 08:16:09 437.125/150
AISAT 29 Jan 08:08:23 08:09:06 10° 68° (ENE) 08:09:57 437.250
UWE-3 29 Jan 08:08:52 08:12:01 18° 78° (ENE) 08:15:11 435.000/436.395/437.385
AAUSAT CUBESAT 2 29 Jan 08:10:06 08:13:46 28° 91° (E) 08:17:26 437.432
QB50P1 29 Jan 08:12:37 08:16:54 67° 59° (ENE) 08:21:14 145.935-145.965
CUSAT 1 29 Jan 08:19:17 08:26:55 37° 344° (NNW) 08:33:31 437.405
CUTE 1.7 + AOD 2 29 Jan 08:21:50 08:25:54 42° 99° (E) 08:29:57 437.475
Oscar 11 29 Jan 08:22:53 08:26:27 24° 87° (E) 08:30:02 145.826/435.025
ITAMSAT 1 29 Jan 08:23:50 08:28:00 25° 14° (NNE) 08:32:12 435.822/435.867
BUGSAT 1 29 Jan 08:24:54 08:29:03 68° 60° (ENE) 08:33:19 437.445
POLYITAN 1 29 Jan 08:27:18 08:31:39 79° 63° (ENE) 08:36:03 437.675
UNISAT 6 29 Jan 08:29:59 08:34:43 82° 248° (WSW) 08:39:25 437.425
VELOX 1 29 Jan 08:35:37 08:37:59 14° 75° (ENE) 08:40:28 145.980
CUBEBUG 1 29 Jan 08:45:21 08:45:57 10° 68° (ENE) 08:46:42 437.445
POPSAT HIP 1 29 Jan 08:47:26 08:51:47 84° 247° (WSW) 08:56:10 437.405
Cubesat XI-IV 29 Jan 08:48:05 08:53:06 40° 321° (NW) 08:58:06 437.490
AIST 1 29 Jan 08:48:40 08:49:52 11° 69° (ENE) 08:51:11
DUCHIFAT 1 29 Jan 08:50:09 08:54:29 82° 248° (WSW) 08:58:50 145.980
SEEDS 29 Jan 08:52:38 08:56:50 57° 104° (ESE) 09:00:59 437.485
50 SAT 29 Jan 08:53:27 08:55:57 16° 79° (E) 08:58:30 437.505
AO-7 29 Jan 08:54:42 09:02:36 48° 353° (N) 09:10:28 29.400- 29.500
AIST 2 29 Jan 08:56:57 09:00:51 32° 209° (SSW) 09:04:42 435.215
UKube-1 29 Jan 08:58:14 09:01:58 27° 91° (E) 09:05:43 .
BEESAT 2 29 Jan 09:01:40 09:05:06 24° 218° (SW) 09:08:29 435.950
HO-68 29 Jan 09:02:42 09:09:51 64° 109° (ESE) 09:16:59 435.675
CUBEBUG 2 29 Jan 09:04:51 09:09:15 36° 94° (E) 09:13:31 437.445
ANTELSAT 29 Jan 09:06:15 09:10:55 55° 257° (WSW) 09:15:30 437.575/2403.000
CUTE-I 29 Jan 09:08:07 09:13:00 36° 326° (NW) 09:17:52 437.470
ZACube-1 29 Jan 09:12:44 09:16:52 32° 92° (E) 09:20:54 437.345
TIGRISAT 29 Jan 09:14:07 09:18:43 51° 258° (WSW) 09:23:17 435.000
BEESAT 3 29 Jan 09:15:57 09:19:06 21° 223° (SW) 09:22:12 437.485
HUMSAT D 29 Jan 09:16:12 09:19:46 25° 87° (E) 09:23:19 437.325/437.525
DX 1 29 Jan 09:18:57 09:23:00 35° 96° (E) 09:27:05 434.975-435.025
COMPASS 1 29 Jan 09:19:20 09:23:33 72° 109° (ESE) 09:27:44 437.405
Gurwin Techsat 1B 29 Jan 09:19:55 09:24:22 28° 23° (NNE) 09:28:52 435.225
PCSat 29 Jan 09:23:00 09:28:25 66° 194° (SSW) 09:33:50 145.827
FUNcube-1 29 Jan 09:24:43 09:28:58 37° 95° (E) 09:33:07 145.935
NANOSAT C BR1 29 Jan 09:25:00 09:29:15 53° 257° (WSW) 09:33:31 145.865
CINEMA 3 29 Jan 09:29:11 09:34:13 63° 105° (ESE) 09:39:04 145.822/145.860
GOMX 1 29 Jan 09:29:35 09:35:11 89° 300° (WNW) 09:40:40 467.674
CANX-2 29 Jan 09:33:36 09:37:54 79° 296° (WNW) 09:42:09 2200.000
BRITE-PL 29 Jan 09:34:00 09:39:44 76° 299° (WNW) 09:45:26 437.365/2234.400
DANDE 29 Jan 09:34:09 09:41:54 36° 1° (N) 09:48:36 436.750
HORYU 2 29 Jan 09:34:25 09:37:39 20° 15° (NNE) 09:40:55 437.375
QB50P2 29 Jan 09:39:30 09:43:40 44° 260° (W) 09:47:52 145.880/145.840
JAS-2 29 Jan 09:39:58 09:44:04 24° 355° (N) 09:48:19 435.910
DELFI C3 29 Jan 09:40:59 09:45:01 55° 104° (ESE) 09:49:01 145.870
DOVE 4 29 Jan 09:42:02 09:47:27 90° 64° (ENE) 09:52:42 437.250
AISAT 29 Jan 09:43:14 09:47:15 30° 92° (E) 09:51:18 437.250
UWE-3 29 Jan 09:45:04 09:49:39 52° 102° (ESE) 09:54:05 435.000/436.395/437.385
Oscar 19 29 Jan 09:45:27 09:50:24 46° 45° (NE) 09:55:22 437.125/150
AAUSAT CUBESAT 2 29 Jan 09:45:44 09:49:57 88° 298° (WNW) 09:54:08 437.432
ESTCUBE 1 29 Jan 09:46:02 09:49:34 22° 85° (E) 09:53:08 437.505/2401.250
YUBILEINY 29 Jan 09:48:31 09:53:55 18° 311° (NW) 09:59:09 435.215
QB50P1 29 Jan 09:49:00 09:53:05 40° 262° (W) 09:57:12 145.935-145.965
CUTE 1.7 + AOD 2 29 Jan 09:57:50 10:02:05 62° 301° (WNW) 10:06:17 437.475
RS-15 29 Jan 09:58:38 10:09:31 69° 192° (SSW) 10:20:50 29.354- 29.394
Oscar 11 29 Jan 09:58:57 10:03:20 77° 110° (ESE) 10:07:40 145.826/435.025
GONETS M04 29 Jan 10:00:20 10:09:02 64° 54° (NE) 10:17:41
BUGSAT 1 29 Jan 10:00:56 10:04:52 38° 262° (W) 10:08:52 437.445
ITAMSAT 1 29 Jan 10:01:46 10:06:33 38° 38° (NE) 10:11:22 435.822/435.867
POLYITAN 1 29 Jan 10:04:03 10:08:01 33° 266° (W) 10:12:01 437.675
CUSAT 1 29 Jan 10:04:33 10:11:54 36° 11° (N) 10:18:05 437.405
SPROUT 29 Jan 10:05:48 10:08:01 14° 75° (ENE) 10:10:21 437.525
UNISAT 6 29 Jan 10:08:05 10:12:09 28° 271° (W) 10:16:11 437.425
VELOX 1 29 Jan 10:11:31 10:15:50 41° 99° (E) 10:20:07 145.980
CUBEBUG 1 29 Jan 10:19:52 10:23:50 30° 92° (E) 10:27:49 437.445
AIST 1 29 Jan 10:22:35 10:26:27 34° 92° (E) 10:30:22
POPSAT HIP 1 29 Jan 10:24:34 10:28:17 27° 270° (W) 10:32:00 437.405
DUCHIFAT 1 29 Jan 10:27:18 10:30:58 26° 271° (W) 10:34:38 145.980
Cubesat XI-IV 29 Jan 10:27:53 10:32:17 26° 345° (NNW) 10:36:40 437.490
50 SAT 29 Jan 10:28:02 10:32:04 49° 102° (ESE) 10:36:03 437.505
SEEDS 29 Jan 10:28:36 10:32:42 48° 307° (NW) 10:36:45 437.485
UKube-1 29 Jan 10:34:20 10:38:45 82° 113° (ESE) 10:43:09 .
AIST 2 29 Jan 10:35:52 10:38:30 16° 231° (SW) 10:41:04 435.215
CUBEBUG 2 29 Jan 10:41:37 10:46:24 79° 297° (WNW) 10:51:00 437.445
TISAT 1 29 Jan 10:42:33 10:45:45 20° 84° (E) 10:49:00 437.305
SO-50 29 Jan 10:45:11 10:48:33 20° 132° (SE) 10:52:03 436.795
ANTELSAT 29 Jan 10:45:18 10:48:42 19° 279° (W) 10:52:01 437.575/2403.000
AO-7 29 Jan 10:46:23 10:54:24 52° 20° (NNE) 11:02:25 29.400- 29.500
CUTE-I 29 Jan 10:47:46 10:52:04 25° 350° (N) 10:56:23 437.470
ZACube-1 29 Jan 10:49:08 10:53:44 84° 295° (WNW) 10:58:12 437.345
HO-68 29 Jan 10:50:42 10:57:49 67° 314° (NW) 11:04:54 435.675
HUMSAT D 29 Jan 10:51:53 10:56:14 78° 110° (ESE) 11:00:31 437.325/437.525
TIGRISAT 29 Jan 10:53:19 10:56:33 18° 281° (W) 10:59:41 435.000
COMPASS 1 29 Jan 10:55:13 10:59:09 39° 312° (NW) 11:03:03 437.405
DX 1 29 Jan 10:55:14 10:59:40 78° 299° (WNW) 11:04:06 434.975-435.025
Gurwin Techsat 1B 29 Jan 10:58:28 11:03:35 49° 47° (NE) 11:08:44 435.225
FUNcube-1 29 Jan 11:01:08 11:05:43 74° 297° (WNW) 11:10:09 145.935
NANOSAT C BR1 29 Jan 11:03:08 11:06:05 18° 279° (W) 11:09:00 145.865
PCSat 29 Jan 11:06:18 11:11:25 42° 218° (SW) 11:16:31 145.827
CINEMA 3 29 Jan 11:06:32 11:11:26 52° 308° (NW) 11:16:11 145.822/145.860
GOMX 1 29 Jan 11:07:49 11:12:59 41° 317° (NW) 11:18:05 467.674
SWISSCUBE 29 Jan 11:08:05 11:10:13 13° 71° (ENE) 11:12:28 437.505
HORYU 2 29 Jan 11:09:24 11:13:23 32° 38° (NE) 11:17:23 437.375
CANX-2 29 Jan 11:09:44 11:13:30 30° 319° (NW) 11:17:13 2200.000
BRITE-PL 29 Jan 11:12:35 11:17:46 38° 321° (NW) 11:22:58 437.365/2234.400
DELFI C3 29 Jan 11:16:22 11:20:18 47° 307° (NW) 11:24:12 145.870
QB50P2 29 Jan 11:18:10 11:20:43 15° 283° (WNW) 11:23:11 145.880/145.840
DANDE 29 Jan 11:19:21 11:27:16 44° 28° (NNE) 11:33:50 436.750
AISAT 29 Jan 11:19:52 11:24:26 89° 280° (W) 11:29:00 437.250
DOVE 4 29 Jan 11:19:55 11:24:55 41° 316° (NW) 11:29:48 437.250
AAUSAT CUBESAT 2 29 Jan 11:21:34 11:25:20 32° 316° (NW) 11:29:04 437.432
UWE-3 29 Jan 11:21:45 11:26:20 56° 305° (NW) 11:30:46 435.000/436.395/437.385
ESTCUBE 1 29 Jan 11:22:45 11:27:17 66° 108° (ESE) 11:31:49 437.505/2401.250
BEESAT 29 Jan 11:23:38 11:26:17 15° 74° (ENE) 11:29:02 436.000
JAS-2 29 Jan 11:23:42 11:28:00 27° 21° (NNE) 11:32:26 435.910
Oscar 19 29 Jan 11:24:24 11:29:38 77° 247° (WSW) 11:34:53 437.125/150
ITUPSAT 1 29 Jan 11:27:30 11:30:16 15° 75° (ENE) 11:33:08 437.325
QB50P1 29 Jan 11:28:00 11:30:12 13° 285° (WNW) 11:32:18 145.935-145.965
CUTE 1.7 + AOD 2 29 Jan 11:33:56 11:37:31 26° 323° (NW) 11:41:03 437.475
Oscar 11 29 Jan 11:35:18 11:39:22 39° 313° (NW) 11:43:23 145.826/435.025
BUGSAT 1 29 Jan 11:39:42 11:41:36 13° 286° (WNW) 11:43:26 437.445
ITAMSAT 1 29 Jan 11:40:29 11:45:43 82° 61° (ENE) 11:50:59 435.822/435.867
SPROUT 29 Jan 11:41:10 11:45:19 41° 98° (E) 11:49:29 437.525
POLYITAN 1 29 Jan 11:43:54 11:45:21 11° 289° (WNW) 11:46:40 437.675
VELOX 1 29 Jan 11:48:12 11:52:42 68° 301° (WNW) 11:57:12 145.980
CUSAT 1 29 Jan 11:48:57 11:56:37 50° 38° (NE) 12:02:44 437.405
CUBEBUG 1 29 Jan 11:56:15 12:00:44 88° 288° (WNW) 12:05:13 437.445
GONETS M04 29 Jan 11:57:34 12:06:12 68° 262° (W) 12:14:48
AIST 1 29 Jan 11:59:37 12:03:55 74° 295° (WNW) 12:08:15
50 SAT 29 Jan 12:03:16 12:07:18 52° 305° (NW) 12:11:16 437.505
SEEDS 29 Jan 12:04:33 12:07:52 22° 329° (NNW) 12:11:08 437.485
Cubesat XI-IV 29 Jan 12:06:54 12:11:11 25° 9° (N) 12:15:30 437.490
RS-15 29 Jan 12:10:19 12:20:49 51° 222° (SW) 12:31:41 29.354- 29.394
UKube-1 29 Jan 12:10:39 12:14:44 38° 316° (NW) 12:18:46 .
TISAT 1 29 Jan 12:18:07 12:22:25 62° 107° (ESE) 12:26:43 437.305
CUBEBUG 2 29 Jan 12:18:27 12:22:43 33° 320° (NW) 12:26:51 437.445
SO-50 29 Jan 12:23:47 12:28:10 37° 154° (SSE) 12:32:40 436.795
ZACube-1 29 Jan 12:25:39 12:29:47 34° 318° (NW) 12:33:49 437.345
CUTE-I 29 Jan 12:26:36 12:30:57 26° 14° (NNE) 12:35:20 437.470
HUMSAT D 29 Jan 12:27:50 12:31:52 38° 313° (NW) 12:35:50 437.325/437.525
COMPASS 1 29 Jan 12:31:01 12:34:06 20° 334° (NNW) 12:37:09 437.405
DX 1 29 Jan 12:31:38 12:35:34 32° 321° (NW) 12:39:29 434.975-435.025
FUNcube-1 29 Jan 12:37:37 12:41:38 31° 321° (NW) 12:45:34 145.935
Gurwin Techsat 1B 29 Jan 12:38:11 12:43:30 72° 249° (WSW) 12:48:53 435.225
HO-68 29 Jan 12:38:15 12:44:53 43° 339° (NNW) 12:51:31 435.675
AO-7 29 Jan 12:38:20 12:46:43 78° 47° (NE) 12:55:06 29.400- 29.500
CINEMA 3 29 Jan 12:43:43 12:47:55 27° 331° (NNW) 12:52:01 145.822/145.860
SWISSCUBE 29 Jan 12:45:07 12:49:34 36° 96° (E) 12:54:01 437.505
HORYU 2 29 Jan 12:45:10 12:49:41 76° 61° (ENE) 12:54:12 437.375
CANX-2 29 Jan 12:45:36 12:48:30 18° 342° (NNW) 12:51:21 2200.000
GOMX 1 29 Jan 12:45:41 12:50:08 26° 340° (NNW) 12:54:34 467.674
PCSat 29 Jan 12:49:54 12:53:47 20° 241° (WSW) 12:57:35 145.827
BRITE-PL 29 Jan 12:50:42 12:55:13 25° 345° (NNW) 12:59:45 437.365/2234.400
DELFI C3 29 Jan 12:51:46 12:54:54 21° 329° (NNW) 12:57:59 145.870
AISAT 29 Jan 12:56:39 13:00:47 36° 318° (NW) 13:04:56 437.250
AAUSAT CUBESAT 2 29 Jan 12:57:15 13:00:07 18° 339° (NNW) 13:02:57 437.432
DOVE 4 29 Jan 12:57:27 13:01:43 25° 340° (NNW) 13:05:56 437.250
UWE-3 29 Jan 12:58:22 13:02:15 26° 328° (NNW) 13:06:03 435.000/436.395/437.385
ESTCUBE 1 29 Jan 12:59:47 13:04:07 46° 311° (NW) 13:08:28 437.505/2401.250
BEESAT 29 Jan 13:00:55 13:05:28 41° 98° (E) 13:10:02 436.000
DANDE 29 Jan 13:03:42 13:11:56 73° 55° (NE) 13:18:26 436.750
ITUPSAT 1 29 Jan 13:04:53 13:09:29 43° 99° (E) 13:14:04 437.325
Oscar 19 29 Jan 13:05:16 13:09:48 29° 272° (W) 13:14:17 437.125/150
JAS-2 29 Jan 13:07:23 13:12:22 48° 46° (NE) 13:17:26 435.910
CUTE 1.7 + AOD 2 29 Jan 13:09:41 13:12:24 17° 347° (NNW) 13:15:07 437.475
Oscar 11 29 Jan 13:11:30 13:14:45 21° 336° (NNW) 13:17:57 145.826/435.025
STARS 29 Jan 13:12:59 13:16:04 18° 81° (E) 13:19:13 437.465
SPROUT 29 Jan 13:17:21 13:21:42 66° 301° (WNW) 13:26:02 437.525
KKS-1 29 Jan 13:19:28 13:23:09 24° 87° (E) 13:26:50 437.445
ITAMSAT 1 29 Jan 13:20:51 13:25:43 38° 264° (W) 13:30:37 435.822/435.867
VELOX 1 29 Jan 13:24:55 13:28:50 29° 324° (NW) 13:32:44 145.980
CUSAT 1 29 Jan 13:32:37 13:40:24 88° 247° (WSW) 13:46:24 437.405
CUBEBUG 1 29 Jan 13:32:48 13:36:50 35° 317° (NW) 13:40:52 437.445
AIST 1 29 Jan 13:38:30 13:42:16 28° 319° (NW) 13:46:01
50 SAT 29 Jan 13:38:32 13:41:49 23° 327° (NNW) 13:45:03 437.505
SEEDS 29 Jan 13:40:01 13:42:34 16° 353° (N) 13:45:07 437.485
Cubesat XI-IV 29 Jan 13:45:27 13:50:16 35° 34° (NNE) 13:55:08 437.490
UKube-1 29 Jan 13:46:47 13:50:05 21° 339° (NNW) 13:53:22 .
TISAT 1 29 Jan 13:54:05 13:58:14 46° 309° (NW) 14:02:22 437.305
GONETS M04 29 Jan 13:54:27 14:01:52 32° 288° (WNW) 14:09:09
CUBEBUG 2 29 Jan 13:54:56 13:58:25 20° 343° (NNW) 14:01:50 437.445
ZACube-1 29 Jan 14:01:54 14:05:13 20° 341° (NNW) 14:08:28 437.345
SO-50 29 Jan 14:03:34 14:08:11 49° 178° (S) 14:12:56 436.795
HUMSAT D 29 Jan 14:03:39 14:06:50 20° 336° (NNW) 14:09:59 437.325/437.525
CUTE-I 29 Jan 14:05:08 14:10:05 40° 38° (NE) 14:15:05 437.470
COMPASS 1 29 Jan 14:06:12 14:08:38 15° 358° (N) 14:11:05 437.405
DX 1 29 Jan 14:07:43 14:10:54 20° 344° (NNW) 14:14:04 434.975-435.025
FUNcube-1 29 Jan 14:13:46 14:16:59 19° 344° (NNW) 14:20:10 145.935
AUBIESAT-1 29 Jan 14:14:12 14:14:58 11° 89° (E) 14:15:50 437.475
Gurwin Techsat 1B 29 Jan 14:19:52 14:24:23 27° 274° (W) 14:28:54 435.225
CINEMA 3 29 Jan 14:20:18 14:23:56 20° 355° (N) 14:27:30 145.822/145.860
CANX-2 29 Jan 14:20:37 14:23:12 16° 5° (N) 14:25:46 2200.000
RS-15 29 Jan 14:22:02 14:30:49 28° 251° (WSW) 14:39:41 29.354- 29.394
HORYU 2 29 Jan 14:22:33 14:26:45 36° 263° (W) 14:30:56 437.375
GOMX 1 29 Jan 14:22:47 14:26:56 23° 4° (N) 14:31:08 467.674
SWISSCUBE 29 Jan 14:23:04 14:27:54 80° 297° (WNW) 14:32:42 437.505
HO-68 29 Jan 14:25:03 14:31:30 38° 5° (N) 14:37:59 435.675
DELFI C3 29 Jan 14:26:43 14:29:01 15° 352° (N) 14:31:19 145.870
BRITE-PL 29 Jan 14:28:01 14:32:22 24° 9° (N) 14:36:49 437.365/2234.400
AO-7 29 Jan 14:31:45 14:40:03 58° 253° (WSW) 14:48:19 29.400- 29.500
AAUSAT CUBESAT 2 29 Jan 14:32:07 14:34:33 15° 3° (N) 14:36:58 437.432
AISAT 29 Jan 14:33:10 14:36:33 21° 341° (NNW) 14:39:55 437.250
DOVE 4 29 Jan 14:34:13 14:38:11 22° 4° (N) 14:42:09 437.250
UWE-3 29 Jan 14:34:29 14:37:40 18° 351° (N) 14:40:49 435.000/436.395/437.385
ESTCUBE 1 29 Jan 14:36:42 14:40:18 23° 333° (NNW) 14:43:52 437.505/2401.250
BEESAT 29 Jan 14:38:54 14:43:41 71° 301° (WNW) 14:48:27 436.000
ITUPSAT 1 29 Jan 14:42:54 14:47:42 69° 301° (WNW) 14:52:29 437.325
CUTE 1.7 + AOD 2 29 Jan 14:44:26 14:47:05 16° 11° (N) 14:49:44 437.475
Oscar 11 29 Jan 14:47:02 14:49:44 16° 359° (N) 14:52:26 145.826/435.025
DANDE 29 Jan 14:47:33 14:55:21 56° 263° (W) 15:01:30 436.750
STARS 29 Jan 14:49:08 14:53:33 54° 104° (ESE) 14:57:58 437.465
Oscar 19 29 Jan 14:50:06 14:51:02 10° 297° (WNW) 14:51:49 437.125/150
JAS-2 29 Jan 14:52:17 14:57:31 70° 250° (WSW) 15:02:47 435.910
SPROUT 29 Jan 14:53:35 14:57:20 28° 323° (NW) 15:01:03 437.525
KKS-1 29 Jan 14:56:01 15:00:33 72° 109° (ESE) 15:05:04 437.445
MOZHAYETS 4 29 Jan 14:59:53 15:03:00 18° 79° (E) 15:06:12
VELOX 1 29 Jan 15:01:14 15:04:25 19° 348° (NNW) 15:07:36 145.980
ITAMSAT 1 29 Jan 15:03:55 15:06:47 14° 289° (WNW) 15:09:33 435.822/435.867
CUBEBUG 1 29 Jan 15:09:06 15:12:19 20° 341° (NNW) 15:15:33 437.445
50 SAT 29 Jan 15:13:24 15:15:51 16° 350° (N) 15:18:18 437.505
SEEDS 29 Jan 15:14:24 15:17:09 17° 17° (NNE) 15:19:55 437.485
M-CUBED/EXP-1 PRIME 29 Jan 15:14:46 15:17:40 26° 105° (ESE) 15:20:33 437.505
CUSAT 1 29 Jan 15:15:57 15:22:51 40° 273° (W) 15:28:20 437.405
AIST 1 29 Jan 15:18:29 15:21:19 17° 344° (NNW) 15:24:08
UKube-1 29 Jan 15:22:11 15:25:06 18° 2° (N) 15:28:01 .
Cubesat XI-IV 29 Jan 15:24:34 15:29:54 72° 58° (ENE) 15:35:18 437.490
YUBILEINY 29 Jan 15:27:36 15:32:09 16° 43° (NE) 15:36:54 435.215
TISAT 1 29 Jan 15:29:59 15:33:22 23° 332° (NNW) 15:36:44 437.305
CUBEBUG 2 29 Jan 15:30:34 15:33:51 19° 7° (N) 15:37:06 437.445
ZACube-1 29 Jan 15:37:18 15:40:20 18° 5° (N) 15:43:21 437.345
HUMSAT D 29 Jan 15:38:47 15:41:27 16° 359° (N) 15:44:05 437.325/437.525
COMPASS 1 29 Jan 15:40:16 15:43:09 18° 21° (NNE) 15:46:02 437.405
DX 1 29 Jan 15:42:58 15:45:59 18° 8° (N) 15:49:00 434.975-435.025
SO-50 29 Jan 15:43:44 15:48:16 41° 201° (SSW) 15:52:52 436.795
CUTE-I 29 Jan 15:44:29 15:49:51 84° 63° (ENE) 15:55:17 437.470
AUBIESAT-1 29 Jan 15:47:44 15:50:55 39° 112° (ESE) 15:54:05 437.475
FUNcube-1 29 Jan 15:49:02 15:52:05 18° 8° (N) 15:55:06 145.935
GONETS M04 29 Jan 15:51:17 15:56:00 16° 317° (NW) 16:00:32
CANX-2 29 Jan 15:54:43 15:57:59 22° 29° (NNE) 16:01:16 2200.000
CINEMA 3 29 Jan 15:55:59 15:59:51 23° 18° (NNE) 16:03:42 145.822/145.860
GOMX 1 29 Jan 15:59:13 16:03:49 29° 28° (NNE) 16:08:31 467.674
DELFI C3 29 Jan 16:00:31 16:03:01 16° 16° (NNE) 16:05:33 145.870
SWISSCUBE 29 Jan 16:01:05 16:05:25 35° 321° (NW) 16:09:44 437.505
HORYU 2 29 Jan 16:02:45 16:04:46 13° 287° (WNW) 16:06:41 437.375
BRITE-PL 29 Jan 16:04:49 16:09:41 33° 33° (NNE) 16:14:43 437.365/2234.400
O/OREOS (USA 219) 29 Jan 16:05:03 16:08:51 27° 117° (ESE) 16:12:43 437.305
AAUSAT CUBESAT 2 29 Jan 16:05:59 16:09:02 20° 26° (NNE) 16:12:07 437.432
AISAT 29 Jan 16:08:54 16:11:59 18° 5° (N) 16:15:05 437.250
UWE-3 29 Jan 16:09:38 16:12:56 20° 15° (NNE) 16:16:15 435.000/436.395/437.385
DOVE 4 29 Jan 16:10:17 16:14:43 28° 27° (NNE) 16:19:12 437.250
HO-68 29 Jan 16:11:27 16:18:15 49° 31° (NNE) 16:25:06 435.675
ESTCUBE 1 29 Jan 16:13:00 16:16:02 18° 357° (N) 16:19:04 437.505/2401.250
BEESAT 29 Jan 16:16:51 16:21:06 32° 324° (NW) 16:25:19 436.000
CUTE 1.7 + AOD 2 29 Jan 16:18:29 16:21:56 24° 34° (NE) 16:25:25 437.475
ITUPSAT 1 29 Jan 16:20:55 16:25:09 32° 325° (NW) 16:29:21 437.325
Oscar 11 29 Jan 16:21:33 16:24:43 20° 23° (NNE) 16:27:54 145.826/435.025
STARS 29 Jan 16:25:44 16:30:08 53° 307° (NW) 16:34:30 437.465
AO-7 29 Jan 16:27:49 16:34:48 27° 280° (W) 16:41:39 29.400- 29.500
SPROUT 29 Jan 16:29:28 16:32:24 18° 347° (NNW) 16:35:20 437.525
DANDE 29 Jan 16:31:16 16:37:23 25° 289° (WNW) 16:42:29 436.750
KKS-1 29 Jan 16:32:49 16:37:06 43° 313° (NW) 16:41:23 437.445
VELOX 1 29 Jan 16:36:40 16:39:48 19° 11° (N) 16:42:57 145.980
MOZHAYETS 4 29 Jan 16:36:47 16:41:18 53° 103° (ESE) 16:45:48
RS-15 29 Jan 16:36:57 16:38:57 10° 280° (W) 16:40:23 29.354- 29.394
JAS-2 29 Jan 16:39:25 16:43:43 25° 276° (W) 16:47:58 435.910
CUBEBUG 1 29 Jan 16:44:36 16:47:30 17° 4° (N) 16:50:25 437.445
50 SAT 29 Jan 16:47:11 16:49:44 16° 14° (NNE) 16:52:17 437.505
SEEDS 29 Jan 16:48:21 16:52:00 28° 39° (NE) 16:55:40 437.485
PRISM 29 Jan 16:48:35 16:51:29 18° 84° (E) 16:54:26 437.425
M-CUBED/EXP-1 PRIME 29 Jan 16:49:42 16:53:06 81° 308° (NW) 16:56:26 437.505
CUBESAT XI-V 29 Jan 16:52:57 16:56:23 20° 81° (E) 16:59:53 437.345
UKube-1 29 Jan 16:56:44 17:00:09 23° 26° (NNE) 17:03:36 .
AIST 1 29 Jan 16:57:59 17:00:40 16° 10° (N) 17:03:23
CUSAT 1 29 Jan 16:59:26 17:04:00 18° 299° (WNW) 17:07:55 437.405
Cubesat XI-IV 29 Jan 17:05:13 17:10:23 46° 261° (W) 17:15:34 437.490
TISAT 1 29 Jan 17:05:20 17:08:04 17° 355° (N) 17:10:48 437.305
CUBEBUG 2 29 Jan 17:05:29 17:09:24 26° 30° (NNE) 17:13:19 437.445
STRAND 1 29 Jan 17:06:58 17:10:44 20° 80° (E) 17:14:35 437.568
ZACube-1 29 Jan 17:11:54 17:15:33 24° 28° (NNE) 17:19:11 437.345
HUMSAT D 29 Jan 17:12:54 17:16:02 20° 23° (NNE) 17:19:11 437.325/437.525
COMPASS 1 29 Jan 17:14:11 17:17:59 33° 44° (NE) 17:21:46 437.405
DX 1 29 Jan 17:17:32 17:21:11 26° 31° (NNE) 17:24:51 434.975-435.025
YUBILEINY 29 Jan 17:18:58 17:26:15 32° 71° (ENE) 17:33:42 435.215
AUBIESAT-1 29 Jan 17:22:44 17:26:04 56° 315° (NW) 17:29:20 437.475
FUNcube-1 29 Jan 17:23:34 17:27:18 25° 31° (NNE) 17:31:01 145.935
SO-50 29 Jan 17:24:10 17:27:59 23° 224° (SW) 17:31:49 436.795
CUTE-I 29 Jan 17:25:31 17:30:29 38° 265° (W) 17:35:30 437.470
CANX-2 29 Jan 17:29:08 17:33:14 44° 52° (NE) 17:37:20 2200.000
CINEMA 3 29 Jan 17:31:29 17:36:05 37° 42° (NE) 17:40:42 145.822/145.860
DELFI C3 29 Jan 17:33:51 17:37:17 27° 39° (NE) 17:40:44 145.870
GOMX 1 29 Jan 17:35:56 17:41:10 53° 51° (NE) 17:46:33 467.674
SWISSCUBE 29 Jan 17:38:42 17:42:21 22° 345° (NNW) 17:45:58 437.505
AAUSAT CUBESAT 2 29 Jan 17:40:00 17:43:56 39° 49° (NE) 17:47:52 437.432
BRITE-PL 29 Jan 17:42:10 17:47:33 64° 56° (ENE) 17:53:12 437.365/2234.400
O/OREOS (USA 219) 29 Jan 17:43:14 17:47:45 67° 140° (SE) 17:52:19 437.305
AISAT 29 Jan 17:43:52 17:47:29 25° 28° (NNE) 17:51:09 437.250
UWE-3 29 Jan 17:44:22 17:48:29 31° 38° (NE) 17:52:34 435.000/436.395/437.385
DOVE 4 29 Jan 17:46:36 17:51:42 51° 51° (NE) 17:56:54 437.250
ESTCUBE 1 29 Jan 17:48:21 17:51:43 21° 21° (NNE) 17:55:07 437.505/2401.250
CUTE 1.7 + AOD 2 29 Jan 17:53:06 17:57:18 55° 56° (ENE) 18:01:30 437.475
BEESAT 29 Jan 17:54:23 17:57:57 21° 348° (NNW) 18:01:31 436.000
Oscar 11 29 Jan 17:56:04 18:00:04 37° 46° (NE) 18:04:05 145.826/435.025
HO-68 29 Jan 17:58:27 18:05:39 85° 56° (ENE) 18:12:52 435.675
ITUPSAT 1 29 Jan 17:58:28 18:02:02 21° 349° (NNW) 18:05:36 437.325
STARS 29 Jan 18:02:18 18:06:00 26° 330° (NNW) 18:09:41 437.465
SPROUT 29 Jan 18:04:26 18:07:16 17° 10° (N) 18:10:07 437.525
KKS-1 29 Jan 18:09:27 18:13:01 23° 335° (NNW) 18:16:32 437.445
VELOX 1 29 Jan 18:11:33 18:15:22 28° 34° (NE) 18:19:14 145.980
MOZHAYETS 4 29 Jan 18:14:10 18:18:39 55° 305° (NW) 18:23:08
DANDE 29 Jan 18:15:47 18:18:15 12° 315° (NW) 18:20:25 436.750
CUBEBUG 1 29 Jan 18:19:17 18:22:45 23° 27° (NNE) 18:26:15 437.445
50 SAT 29 Jan 18:20:24 18:23:50 26° 37° (NE) 18:27:16 437.505
SEEDS 29 Jan 18:23:10 18:27:25 71° 62° (ENE) 18:31:40 437.485
PRISM 29 Jan 18:23:46 18:27:53 58° 106° (ESE) 18:32:00 437.425
M-CUBED/EXP-1 PRIME 29 Jan 18:24:50 18:27:53 30° 331° (NNW) 18:30:51 437.505
AO-7 29 Jan 18:28:23 18:31:15 12° 310° (NW) 18:33:50 29.400- 29.500
CUBESAT XI-V 29 Jan 18:30:11 18:34:49 58° 104° (ESE) 18:39:29 437.345
UKube-1 29 Jan 18:31:27 18:35:36 44° 49° (NE) 18:39:47 .
AIST 1 29 Jan 18:36:16 18:39:49 24° 35° (NE) 18:43:26
TISAT 1 29 Jan 18:39:41 18:42:42 19° 19° (NNE) 18:45:44 437.305
CUBEBUG 2 29 Jan 18:40:46 18:45:26 51° 53° (NE) 18:50:04 437.445
STRAND 1 29 Jan 18:46:00 18:51:06 55° 104° (ESE) 18:56:11 437.568
ZACube-1 29 Jan 18:46:47 18:51:13 46° 51° (NE) 18:55:37 437.345
HUMSAT D 29 Jan 18:46:59 18:50:59 36° 45° (NE) 18:54:59 437.325/437.525
Cubesat XI-IV 29 Jan 18:48:21 18:51:54 17° 285° (WNW) 18:55:23 437.490
COMPASS 1 29 Jan 18:49:10 18:53:25 88° 67° (ENE) 18:57:40 437.405
DX 1 29 Jan 18:52:34 18:56:52 56° 54° (NE) 19:01:12 434.975-435.025
AUBIESAT-1 29 Jan 18:57:46 19:00:38 25° 337° (NNW) 19:03:25 437.475
FUNcube-1 29 Jan 18:58:31 19:03:00 52° 54° (NE) 19:07:28 145.935
CANX-2 29 Jan 19:04:51 19:09:08 63° 253° (WSW) 19:13:26 2200.000
CINEMA 3 29 Jan 19:07:51 19:12:56 83° 62° (ENE) 19:18:02 145.822/145.860
DELFI C3 29 Jan 19:08:02 19:12:06 68° 61° (ENE) 19:16:10 145.870
CUTE-I 29 Jan 19:09:17 19:12:13 14° 290° (WNW) 19:15:01 437.470
YUBILEINY 29 Jan 19:13:17 19:21:52 68° 98° (E) 19:30:33 435.215
GOMX 1 29 Jan 19:13:54 19:19:16 67° 254° (WSW) 19:24:49 467.674
AAUSAT CUBESAT 2 29 Jan 19:15:15 19:19:28 73° 251° (WSW) 19:23:42 437.432
SWISSCUBE 29 Jan 19:15:31 19:19:01 21° 9° (N) 19:22:32 437.505
AISAT 29 Jan 19:19:07 19:23:27 49° 51° (NE) 19:27:50 437.250
UWE-3 29 Jan 19:19:51 19:24:34 70° 60° (ENE) 19:29:15 435.000/436.395/437.385
BRITE-PL 29 Jan 19:20:56 19:26:15 54° 260° (W) 19:31:52 437.365/2234.400
O/OREOS (USA 219) 29 Jan 19:22:42 19:27:16 70° 344° (NNW) 19:31:53 437.305
ESTCUBE 1 29 Jan 19:23:37 19:27:45 37° 44° (NE) 19:31:56 437.505/2401.250
DOVE 4 29 Jan 19:24:09 19:29:25 69° 253° (WSW) 19:34:48 437.250
CUTE 1.7 + AOD 2 29 Jan 19:29:11 19:33:22 49° 259° (WSW) 19:37:34 437.475
BEESAT 29 Jan 19:31:03 19:34:37 21° 12° (NNE) 19:38:11 436.000
Oscar 11 29 Jan 19:31:40 19:36:03 83° 248° (WSW) 19:40:26 145.826/435.025
ITUPSAT 1 29 Jan 19:35:10 19:38:44 21° 13° (NNE) 19:42:20 437.325
STARS 29 Jan 19:38:20 19:41:24 18° 353° (N) 19:44:27 437.465
SPROUT 29 Jan 19:38:43 19:42:17 25° 34° (NNE) 19:45:55 437.525
KKS-1 29 Jan 19:45:27 19:48:31 18° 359° (N) 19:51:34 437.445
VELOX 1 29 Jan 19:47:01 19:51:27 64° 57° (ENE) 19:55:55 145.980
HO-68 29 Jan 19:47:11 19:54:03 46° 262° (W) 20:00:56 435.675
MOZHAYETS 4 29 Jan 19:51:29 19:55:17 26° 328° (NNW) 19:59:03
CUBEBUG 1 29 Jan 19:54:13 19:58:25 46° 50° (NE) 20:02:41 437.445
50 SAT 29 Jan 19:54:21 19:58:28 62° 59° (ENE) 20:02:34 437.505
PRISM 29 Jan 19:59:26 20:03:25 47° 309° (NW) 20:07:25 437.425
SEEDS 29 Jan 19:59:37 20:03:35 36° 264° (W) 20:07:33 437.485
M-CUBED/EXP-1 PRIME 29 Jan 19:59:37 20:02:14 20° 354° (N) 20:04:47 437.505
UKube-1 29 Jan 20:07:22 20:11:43 66° 251° (WSW) 20:16:06 .
CUBESAT XI-V 29 Jan 20:07:47 20:12:21 52° 306° (NW) 20:16:55 437.345
UNISAT 6 29 Jan 20:09:04 20:10:25 11° 68° (ENE) 20:11:53 437.425
TISAT 1 29 Jan 20:13:46 20:17:37 32° 42° (NE) 20:21:29 437.305
AIST 1 29 Jan 20:14:03 20:18:21 58° 60° (ENE) 20:22:40
CUBEBUG 2 29 Jan 20:17:24 20:22:10 60° 255° (WSW) 20:26:55 437.445
HUMSAT D 29 Jan 20:22:10 20:26:34 85° 248° (WSW) 20:30:57 437.325/437.525
ZACube-1 29 Jan 20:22:55 20:27:33 66° 254° (WSW) 20:32:09 437.345
STRAND 1 29 Jan 20:25:23 20:30:28 60° 307° (NW) 20:35:33 437.568
COMPASS 1 29 Jan 20:25:56 20:29:40 29° 269° (W) 20:33:21 437.405
DX 1 29 Jan 20:28:59 20:33:15 50° 256° (WSW) 20:37:35 434.975-435.025
AUBIESAT-1 29 Jan 20:32:17 20:34:51 20° 1° (N) 20:37:21 437.475
FUNcube-1 29 Jan 20:34:50 20:39:25 57° 256° (WSW) 20:43:58 145.935
CANX-2 29 Jan 20:42:40 20:45:56 20° 277° (W) 20:49:07 2200.000
DELFI C3 29 Jan 20:43:50 20:47:39 36° 263° (W) 20:51:27 145.870
ANTELSAT 29 Jan 20:44:14 20:47:11 17° 78° (ENE) 20:50:10 437.575/2403.000
CINEMA 3 29 Jan 20:45:55 20:50:37 37° 267° (W) 20:55:19 145.822/145.860
TIGRISAT 29 Jan 20:51:37 20:54:46 18° 79° (E) 20:57:55 435.000
SWISSCUBE 29 Jan 20:51:43 20:55:50 30° 33° (NNE) 20:59:59 437.505
AAUSAT CUBESAT 2 29 Jan 20:52:28 20:55:51 23° 274° (W) 20:59:11 437.432
GOMX 1 29 Jan 20:53:52 20:58:22 26° 278° (W) 21:02:55 467.674
AISAT 29 Jan 20:55:38 21:00:05 61° 253° (WSW) 21:04:36 437.250
NANOSAT C BR1 29 Jan 20:56:21 20:58:40 14° 76° (ENE) 21:01:05 145.865
UWE-3 29 Jan 20:56:55 21:01:25 41° 263° (W) 21:05:53 435.000/436.395/437.385
ESTCUBE 1 29 Jan 20:59:52 21:04:25 86° 249° (WSW) 21:08:59 437.505/2401.250
BRITE-PL 29 Jan 21:01:51 21:06:01 22° 285° (WNW) 21:10:16 437.365/2234.400
O/OREOS (USA 219) 29 Jan 21:02:31 21:07:05 65° 8° (N) 21:11:41 437.305
DOVE 4 29 Jan 21:03:40 21:08:05 26° 277° (W) 21:12:33 437.250
BEESAT 29 Jan 21:07:15 21:11:28 32° 36° (NE) 21:15:42 436.000
CUTE 1.7 + AOD 2 29 Jan 21:07:37 21:10:21 16° 282° (WNW) 21:13:00 437.475
Oscar 11 29 Jan 21:09:08 21:12:52 26° 271° (W) 21:16:33 145.826/435.025
YUBILEINY 29 Jan 21:10:21 21:19:01 65° 306° (NW) 21:27:46 435.215
QB50P2 29 Jan 21:10:44 21:13:35 17° 80° (E) 21:16:29 145.880/145.840
ITUPSAT 1 29 Jan 21:11:25 21:15:39 33° 36° (NE) 21:19:56 437.325
STARS 29 Jan 21:13:26 21:16:41 20° 17° (NNE) 21:19:57 437.465
SPROUT 29 Jan 21:13:33 21:17:49 57° 56° (NE) 21:22:08 437.525
QB50P1 29 Jan 21:19:48 21:22:53 19° 82° (E) 21:25:59 145.935-145.965
KKS-1 29 Jan 21:20:32 21:23:59 22° 23° (NNE) 21:27:29 437.445
VELOX 1 29 Jan 21:24:00 21:28:17 44° 260° (W) 21:32:37 145.980
MOZHAYETS 4 29 Jan 21:28:18 21:31:24 18° 352° (N) 21:34:29
BUGSAT 1 29 Jan 21:28:50 21:31:48 18° 82° (E) 21:34:51 437.445
GONETS M04 29 Jan 21:29:10 21:34:18 18° 48° (NE) 21:39:36
50 SAT 29 Jan 21:29:51 21:33:49 41° 261° (W) 21:37:46 437.505
CUBEBUG 1 29 Jan 21:30:24 21:34:47 63° 253° (WSW) 21:39:12 437.445
M-CUBED/EXP-1 PRIME 29 Jan 21:33:41 21:36:30 23° 17° (NNE) 21:39:13 437.505
POLYITAN 1 29 Jan 21:34:50 21:38:17 22° 86° (E) 21:41:44 437.675
PRISM 29 Jan 21:35:03 21:38:18 22° 331° (NNW) 21:41:32 437.425
HO-68 29 Jan 21:38:38 21:43:47 20° 288° (WNW) 21:48:49 435.675
SEEDS 29 Jan 21:38:58 21:40:42 12° 288° (WNW) 21:42:19 437.485
UNISAT 6 29 Jan 21:44:34 21:48:44 33° 93° (E) 21:52:48 437.425
UKube-1 29 Jan 21:45:17 21:48:41 21° 274° (W) 21:52:04 .
CUBESAT XI-V 29 Jan 21:45:18 21:49:08 26° 330° (NNW) 21:52:59 437.345
TISAT 1 29 Jan 21:48:49 21:53:07 84° 64° (ENE) 21:57:28 437.305
AIST 1 29 Jan 21:51:53 21:56:01 44° 263° (W) 22:00:10
POPSAT HIP 1 29 Jan 21:54:30 21:58:16 28° 91° (E) 22:02:02 437.405
CUBEBUG 2 29 Jan 21:56:06 21:59:49 21° 279° (W) 22:03:27 437.445
DUCHIFAT 1 29 Jan 21:56:50 22:00:36 28° 91° (E) 22:04:23 145.980
HUMSAT D 29 Jan 21:59:10 22:02:57 27° 270° (W) 22:06:41 437.325/437.525
ZACube-1 29 Jan 22:01:05 22:04:46 22° 276° (W) 22:08:22 437.345
STRAND 1 29 Jan 22:04:36 22:09:05 31° 331° (NNW) 22:13:33 437.568
AUBIESAT-1 29 Jan 22:06:08 22:09:05 25° 23° (NNE) 22:11:57 437.475
DX 1 29 Jan 22:07:39 22:10:33 17° 280° (W) 22:13:24 434.975-435.025
FUNcube-1 29 Jan 22:13:16 22:16:42 20° 279° (W) 22:20:04 145.935
ANTELSAT 29 Jan 22:20:38 22:25:07 49° 101° (ESE) 22:29:29 437.575/2403.000
DELFI C3 29 Jan 22:22:32 22:24:06 12° 287° (WNW) 22:25:34 145.870
CINEMA 3 29 Jan 22:26:41 22:29:19 14° 291° (WNW) 22:31:50 145.822/145.860
TIGRISAT 29 Jan 22:28:03 22:32:35 53° 103° (ESE) 22:36:58 435.000
SWISSCUBE 29 Jan 22:28:28 22:33:11 63° 55° (NE) 22:37:56 437.505
NANOSAT C BR1 29 Jan 22:31:33 22:35:43 43° 100° (E) 22:39:51 145.865
AISAT 29 Jan 22:34:14 22:37:38 20° 277° (W) 22:41:00 437.250
UWE-3 29 Jan 22:36:30 22:39:13 15° 286° (WNW) 22:41:51 435.000/436.395/437.385
ESTCUBE 1 29 Jan 22:37:57 22:41:54 28° 269° (W) 22:45:50 437.505/2401.250
O/OREOS (USA 219) 29 Jan 22:42:09 22:46:46 84° 213° (SSW) 22:51:23 437.305
BEESAT 29 Jan 22:44:06 22:48:52 70° 58° (ENE) 22:53:40 436.000
QB50P2 29 Jan 22:46:14 22:50:30 52° 103° (ESE) 22:54:45 145.880/145.840
STARS 29 Jan 22:48:14 22:52:14 33° 40° (NE) 22:56:16 437.465
ITUPSAT 1 29 Jan 22:48:22 22:53:08 73° 59° (ENE) 22:57:57 437.325
SPROUT 29 Jan 22:49:51 22:54:04 48° 258° (WSW) 22:58:21 437.525
QB50P1 29 Jan 22:55:22 22:59:41 57° 105° (ESE) 23:03:57 145.935-145.965
KKS-1 29 Jan 22:55:37 22:59:51 40° 46° (NE) 23:04:05 437.445
VELOX 1 29 Jan 23:03:25 23:06:04 15° 283° (WNW) 23:08:37 145.980
BUGSAT 1 29 Jan 23:04:00 23:08:13 56° 105° (ESE) 23:12:28 437.445
MOZHAYETS 4 29 Jan 23:04:08 23:07:23 19° 16° (NNE) 23:10:39
M-CUBED/EXP-1 PRIME 29 Jan 23:07:34 23:11:00 41° 39° (NE) 23:14:16 437.505
50 SAT 29 Jan 23:07:55 23:10:03 13° 284° (WNW) 23:12:05 437.505
CUBEBUG 1 29 Jan 23:08:40 23:12:01 21° 276° (W) 23:15:22 437.445
YUBILEINY 29 Jan 23:09:26 23:17:35 40° 336° (NNW) 23:25:46 435.215
PRISM 29 Jan 23:10:11 23:12:46 16° 354° (N) 23:15:19 437.425
POLYITAN 1 29 Jan 23:10:36 23:14:59 70° 108° (ESE) 23:19:19 437.675
GONETS M04 29 Jan 23:21:02 23:28:42 37° 76° (ENE) 23:36:25
UNISAT 6 29 Jan 23:21:24 23:26:02 83° 295° (WNW) 23:30:31 437.425
Oscar 19 29 Jan 23:21:30 23:24:45 17° 74° (ENE) 23:28:05 437.125/150
CUBESAT XI-V 29 Jan 23:22:17 23:25:27 18° 353° (N) 23:28:39 437.345
TISAT 1 29 Jan 23:25:34 23:29:26 31° 267° (W) 23:33:17 437.305
POPSAT HIP 1 29 Jan 23:30:22 23:34:45 86° 112° (ESE) 23:39:06 437.405
AIST 1 29 Jan 23:30:22 23:32:48 15° 285° (WNW) 23:35:10
DUCHIFAT 1 29 Jan 23:32:40 23:37:02 88° 113° (ESE) 23:41:22 145.980
ITAMSAT 1 29 Jan 23:39:33 23:41:29 12° 67° (ENE) 23:43:34 435.822/435.867
AUBIESAT-1 29 Jan 23:40:07 23:43:40 55° 45° (NE) 23:47:01 437.475
CUSAT 1 29 Jan 23:41:15 23:42:04 10° 44° (NE) 23:43:04 437.405
STRAND 1 29 Jan 23:43:14 23:47:12 23° 355° (N) 23:51:11 437.568
ANTELSAT 29 Jan 23:57:33 00:02:05 57° 305° (NW) 00:06:30 437.575/2403.000
TIGRISAT 30 Jan 00:04:56 00:09:27 54° 306° (NW) 00:13:49 435.000
SWISSCUBE 30 Jan 00:06:39 00:11:17 48° 258° (WSW) 00:15:56 437.505
NANOSAT C BR1 30 Jan 00:07:31 00:11:50 63° 302° (WNW) 00:16:06 145.865
O/OREOS (USA 219) 30 Jan 00:21:39 00:25:54 37° 235° (SW) 00:30:08 437.305
QB50P2 30 Jan 00:22:17 00:26:32 53° 306° (NW) 00:30:46 145.880/145.840
BEESAT 30 Jan 00:22:31 00:27:04 42° 261° (W) 00:31:38 436.000
STARS 30 Jan 00:23:53 00:28:23 81° 62° (ENE) 00:32:54 437.465
AO-7 30 Jan 00:23:54 00:26:15 11° 49° (NE) 00:28:53 29.400- 29.500
ITUPSAT 1 30 Jan 00:26:53 00:31:25 40° 262° (W) 00:35:57 437.325
SPROUT 30 Jan 00:28:29 00:31:15 16° 282° (WNW) 00:33:57 437.525
QB50P1 30 Jan 00:31:24 00:35:37 49° 307° (NW) 00:39:47 145.935-145.965
KKS-1 30 Jan 00:31:48 00:36:20 78° 248° (WSW) 00:40:54 437.445
Gurwin Techsat 1B 30 Jan 00:39:34 00:43:22 20° 78° (ENE) 00:47:14 435.225
MOZHAYETS 4 30 Jan 00:39:36 00:43:38 31° 39° (NE) 00:47:41
BUGSAT 1 30 Jan 00:39:37 00:43:46 49° 307° (NW) 00:47:56 437.445
M-CUBED/EXP-1 PRIME 30 Jan 00:42:19 00:46:00 64° 240° (WSW) 00:49:27 437.505
PRISM 30 Jan 00:44:17 00:47:06 18° 18° (NNE) 00:49:58 437.425
POLYITAN 1 30 Jan 00:46:42 00:50:50 42° 311° (NW) 00:54:56 437.675
DANDE 30 Jan 00:52:40 00:57:49 18° 60° (ENE) 01:02:55 436.750
CUBESAT XI-V 30 Jan 00:58:17 01:01:39 20° 17° (NNE) 01:05:04 437.345
UNISAT 6 30 Jan 00:58:20 01:02:30 34° 319° (NW) 01:06:33 437.425
Oscar 19 30 Jan 01:00:30 01:05:30 45° 99° (E) 01:10:27 437.125/150
TISAT 1 30 Jan 01:06:03 01:06:41 10° 291° (WNW) 01:07:13 437.305
POPSAT HIP 1 30 Jan 01:06:26 01:10:25 36° 316° (NW) 01:14:23 437.405
DUCHIFAT 1 30 Jan 01:08:41 01:12:38 35° 316° (NW) 01:16:34 145.980
YUBILEINY 30 Jan 01:09:00 01:16:56 36° 7° (N) 01:24:55 435.215
AUBIESAT-1 30 Jan 01:15:15 01:18:46 43° 246° (WSW) 01:22:06 437.475
GONETS M04 30 Jan 01:15:53 01:24:36 76° 103° (ESE) 01:33:19
CUSAT 1 30 Jan 01:16:42 01:22:33 22° 69° (ENE) 01:28:11 437.405
ITAMSAT 1 30 Jan 01:18:02 01:22:44 32° 92° (E) 01:27:28 435.822/435.867
STRAND 1 30 Jan 01:21:02 01:25:13 26° 19° (NNE) 01:29:25 437.568
ANTELSAT 30 Jan 01:34:26 01:38:18 27° 328° (NNW) 01:42:04 437.575/2403.000
